FW3135 Weather Reports


time (UTC)temp
C
wind
direction
speed
KPH
gust
KPH
rain 1hr
cm
rain 24hr
cm
rain mn
cm
humidity
%
barometer
mb
20260902070826 19 71 4.8 14.5 0.00 0.00 0.00 85 1022.3
20260902070321 18 78 4.8 14.5 0.00 0.00 0.00 86 1022.2
20260902065905 18 76 4.8 11.3 0.00 0.00 0.00 86 1022.2
20260902065315 18 73 4.8 11.3 0.00 0.00 0.00 86 1022.0
20260902064856 18 90 1.6 4.8 0.00 0.00 0.00 87 1022.1
20260902064324 18 51 0.0 6.4 0.00 0.00 0.00 86 1022.0
20260902063824 18 121 1.6 6.4 0.00 0.00 0.00 87 1022.0
20260902063316 18 41 1.6 6.4 0.00 0.00 0.00 87 1021.9
20260902062830 18 62 3.2 12.9 0.00 0.00 0.00 87 1021.9
20260902062321 18 51 4.8 12.9 0.00 0.00 0.00 86 1021.9
20260902061841 18 52 1.6 12.9 0.00 0.00 0.00 86 1021.8
20260902061425 18 95 3.2 9.7 0.00 0.00 0.00 86 1021.7
20260902060826 18 92 1.6 9.7 0.00 0.00 0.00 86 1021.7
20260902060316 18 99 1.6 9.7 0.00 0.00 0.00 86 1021.6
20260902055824 18 75 4.8 12.9 0.00 0.00 0.00 86 1021.7
20260902055343 18 321 6.4 12.9 0.00 0.00 0.00 86 1021.6
20260902054816 18 86 1.6 9.7 0.00 0.00 0.00 86 1021.4
20260902054354 18 50 0.0 16.1 0.00 0.00 0.00 86 1021.4
20260902053824 18 322 3.2 16.1 0.00 0.00 0.00 86 1021.5
20260902053329 18 93 4.8 14.5 0.00 0.00 0.00 86 1021.3
20260902052823 18 225 1.6 14.5 0.00 0.00 0.00 86 1021.2
20260902052341 18 311 3.2 14.5 0.00 0.00 0.00 86 1021.2
20260902051827 18 310 1.6 19.3 0.00 0.00 0.00 86 1021.1
20260902051316 18 360 3.2 19.3 0.00 0.00 0.00 86 1021.0
20260902050816 18 86 6.4 19.3 0.00 0.00 0.00 86 1020.9
20260902050313 18 308 4.8 19.3 0.00 0.00 0.00 86 1020.8
20260902045827 18 73 3.2 25.7 0.00 0.00 0.00 86 1020.8
20260902045322 18 132 12.9 27.4 0.00 0.00 0.00 86 1020.8
20260902044818 18 79 12.9 29.0 0.00 0.00 0.00 86 1020.7
20260902044325 18 88 11.3 30.6 0.00 0.00 0.00 86 1020.6
20260902043818 18 47 11.3 30.6 0.00 0.00 0.00 86 1020.6
20260902043332 18 53 12.9 29.0 0.00 0.00 0.00 86 1020.6
20260902042823 18 51 14.5 27.4 0.00 0.00 0.00 86 1020.8
20260902042325 18 59 14.5 27.4 0.00 0.00 0.00 86 1020.8
20260902041833 18 28 14.5 27.4 0.00 0.00 0.00 86 1020.8
20260902041325 18 41 12.9 27.4 0.00 0.00 0.00 85 1020.9
20260902040822 18 355 14.5 29.0 0.00 0.00 0.00 85 1021.0
20260902040314 18 355 12.9 27.4 0.00 0.00 0.00 85 1021.0
20260902035813 18 67 11.3 25.7 0.00 0.00 0.00 85 1021.0
20260902035325 18 338 12.9 32.2 0.00 0.00 0.00 85 1021.0
20260902034818 18 330 16.1 32.2 0.00 0.00 0.00 85 1021.0
20260902034333 18 65 12.9 30.6 0.00 0.00 0.00 85 1021.1
20260902033831 18 65 16.1 32.2 0.00 0.00 0.00 85 1021.1
20260902033316 18 31 14.5 25.7 0.00 0.00 0.00 85 1021.1
20260902032814 18 42 9.7 25.7 0.00 0.00 0.00 85 1021.2
20260902032330 18 71 12.9 30.6 0.00 0.00 0.00 85 1021.2
20260902031828 18 42 16.1 30.6 0.00 0.00 0.00 85 1021.3
20260902031325 18 346 14.5 25.7 0.00 0.00 0.00 85 1021.3
20260902030822 18 309 8.0 25.7 0.00 0.00 0.00 85 1021.4
20260902030321 18 334 11.3 29.0 0.00 0.00 0.00 85 1021.4
20260902025827 18 300 11.3 29.0 0.00 0.00 0.00 85 1021.5
20260902025321 18 360 14.5 25.7 0.00 0.00 0.00 85 1021.4
20260902024821 18 39 9.7 25.7 0.00 0.00 0.00 85 1021.4
20260902024318 18 315 16.1 25.7 0.00 0.00 0.00 85 1021.5
20260902023822 18 32 16.1 25.7 0.00 0.00 0.00 85 1021.4
20260902023338 18 42 9.7 24.1 0.00 0.00 0.00 85 1021.4
20260902022840 18 34 12.9 35.4 0.00 0.00 0.00 85 1021.5
20260902022332 18 74 14.5 35.4 0.00 0.00 0.00 85 1021.6
20260902021820 18 333 14.5 30.6 0.00 0.00 0.00 85 1021.6
20260902021353 18 53 14.5 30.6 0.00 0.00 0.00 85 1021.6
20260902020824 18 40 11.3 27.4 0.00 0.00 0.00 85 1021.5
20260902020317 18 47 9.7 25.7 0.00 0.00 0.00 85 1021.6
20260902015853 18 73 14.5 27.4 0.00 0.00 0.00 85 1021.5
20260902015347 18 349 16.1 30.6 0.00 0.00 0.00 85 1021.6
20260902014831 18 75 14.5 27.4 0.00 0.00 0.00 85 1021.6
20260902014318 18 87 11.3 29.0 0.00 0.00 0.00 85 1021.6
20260902013846 18 355 14.5 27.4 0.00 0.00 0.00 85 1021.8
20260902013339 18 28 14.5 30.6 0.00 0.00 0.00 85 1021.8
20260902012851 18 308 19.3 38.6 0.00 0.00 0.00 85 1021.9
20260902012317 18 346 16.1 37.0 0.00 0.00 0.00 85 1021.9
20260902011835 18 39 17.7 37.0 0.00 0.00 0.00 85 1021.9
20260902011328 18 75 14.5 30.6 0.00 0.00 0.00 85 1021.9
20260902010836 18 355 12.9 33.8 0.00 0.00 0.00 84 1021.7
20260902010326 18 55 17.7 29.0 0.00 0.00 0.00 84 1021.8
20260902005824 18 322 14.5 30.6 0.00 0.00 0.00 84 1021.8
20260902005335 18 64 17.7 33.8 0.00 0.00 0.00 84 1021.8
20260902004829 18 33 16.1 35.4 0.00 0.00 0.00 84 1021.9
20260902004318 18 55 16.1 33.8 0.00 0.00 0.00 84 1021.8
20260902003817 18 360 16.1 32.2 0.00 0.00 0.00 85 1021.8
20260902003324 18 51 19.3 30.6 0.00 0.00 0.00 85 1021.8
20260902002815 18 39 17.7 30.6 0.00 0.00 0.00 85 1021.9
20260902002331 18 355 16.1 30.6 0.00 0.00 0.00 84 1021.9
20260902001823 18 41 9.7 33.8 0.00 0.00 0.00 84 1021.9
20260902001326 18 55 16.1 33.8 0.00 0.00 0.00 84 1021.9
20260902000825 18 340 14.5 37.0 0.00 0.00 0.00 84 1021.9
20260902000322 18 348 12.9 37.0 0.00 0.00 0.00 84 1021.9
20260901235814 18 70 14.5 37.0 0.00 0.00 0.00 84 1021.9
20260901235338 18 36 14.5 40.2 0.00 0.00 0.00 84 1021.8
20260901234832 19 34 16.1 40.2 0.00 0.00 0.00 84 1021.9
20260901234326 19 101 16.1 32.2 0.00 0.00 0.00 84 1021.8
20260901233827 19 360 16.1 32.2 0.00 0.00 0.00 83 1021.8
20260901233322 19 329 14.5 33.8 0.00 0.00 0.00 83 1021.9
20260901232824 19 360 16.1 33.8 0.00 0.00 0.00 83 1022.0
20260901232346 19 336 16.1 32.2 0.00 0.00 0.00 83 1022.0
20260901231839 19 326 16.1 29.0 0.00 0.00 0.00 83 1022.1
20260901231317 19 53 17.7 33.8 0.00 0.00 0.00 84 1022.1
20260901230831 19 323 19.3 33.8 0.00 0.00 0.00 83 1022.0
20260901230334 19 337 9.7 25.7 0.00 0.00 0.00 83 1022.0
20260901225829 19 80 14.5 30.6 0.00 0.00 0.00 84 1022.2
20260901225352 19 75 17.7 30.6 0.00 0.00 0.00 84 1022.2
20260901224855 19 88 12.9 24.1 0.00 0.00 0.00 84 1022.3
20260901224330 19 42 9.7 24.1 0.00 0.00 0.00 84 1022.3
20260901223830 19 325 9.7 24.1 0.00 0.00 0.00 83 1022.5
20260901223336 19 86 11.3 20.9 0.00 0.00 0.00 83 1022.5
20260901222835 19 327 6.4 20.9 0.00 0.00 0.00 83 1022.5
20260901222356 19 63 8.0 22.5 0.00 0.00 0.00 83 1022.6
20260901221830 19 338 11.3 25.7 0.00 0.00 0.00 83 1022.6
20260901221327 19 30 11.3 30.6 0.00 0.00 0.00 83 1022.6
20260901220827 19 42 16.1 30.6 0.00 0.00 0.00 83 1022.7
20260901220323 19 50 9.7 22.5 0.00 0.00 0.00 82 1022.6
20260901215827 19 360 4.8 25.7 0.00 0.00 0.00 82 1022.6
20260901215323 19 322 6.4 14.5 0.00 0.00 0.00 82 1022.8
20260901214845 19 300 4.8 14.5 0.00 0.00 0.00 82 1022.9
20260901214320 19 78 1.6 22.5 0.00 0.00 0.00 82 1022.8
20260901213816 19 107 9.7 22.5 0.00 0.00 0.00 82 1022.8
20260901213318 19 360 4.8 14.5 0.00 0.00 0.00 81 1022.9
20260901212813 19 147 4.8 16.1 0.00 0.00 0.00 81 1022.8
20260901212333 19 128 6.4 16.1 0.00 0.00 0.00 81 1022.8
20260901211829 20 120 4.8 16.1 0.00 0.00 0.00 81 1022.8
20260901211331 20 143 9.7 22.5 0.00 0.00 0.00 81 1022.6
20260901210825 20 73 4.8 20.9 0.00 0.00 0.00 80 1022.6
20260901210329 20 318 6.4 30.6 0.00 0.00 0.00 80 1022.4
20260901205824 20 355 14.5 32.2 0.00 0.00 0.00 80 1022.4
20260901205328 20 360 4.8 32.2 0.00 0.00 0.00 80 1022.3
20260901204822 20 328 9.7 32.2 0.00 0.00 0.00 80 1022.1
20260901204318 20 64 14.5 32.2 0.00 0.00 0.00 80 1022.1
20260901203820 20 273 14.5 35.4 0.00 0.00 0.00 80 1022.0
20260901203316 20 37 17.7 35.4 0.00 0.00 0.00 80 1021.8
20260901202818 20 343 16.1 38.6 0.00 0.00 0.00 80 1021.8
20260901202325 20 348 16.1 32.2 0.00 0.00 0.00 80 1021.9
20260901201840 20 338 16.1 33.8 0.00 0.00 0.00 79 1021.8
20260901201323 20 360 14.5 30.6 0.00 0.00 0.00 79 1021.7
20260901200820 20 339 16.1 30.6 0.00 0.00 0.00 79 1021.6
20260901200344 20 355 11.3 35.4 0.00 0.00 0.00 79 1021.6
20260901195817 20 327 14.5 35.4 0.00 0.00 0.00 78 1021.7
20260901195340 20 360 16.1 29.0 0.00 0.00 0.00 78 1021.6
20260901194815 20 306 12.9 29.0 0.00 0.00 0.00 78 1021.6
20260901194318 20 355 14.5 33.8 0.00 0.00 0.00 78 1021.6
20260901193815 20 350 19.3 33.8 0.00 0.00 0.00 78 1021.5
20260901193336 20 56 12.9 25.7 0.00 0.00 0.00 77 1021.4
20260901192813 20 360 11.3 32.2 0.00 0.00 0.00 77 1021.4
20260901192316 20 9 16.1 30.6 0.00 0.00 0.00 77 1021.4
20260901191832 20 346 17.7 32.2 0.00 0.00 0.00 77 1021.4
20260901191334 20 42 14.5 29.0 0.00 0.00 0.00 77 1021.3
20260901190830 20 360 19.3 30.6 0.00 0.00 0.00 77 1021.4
20260901190325 20 339 14.5 30.6 0.00 0.00 0.00 77 1021.5
20260901185842 20 69 11.3 32.2 0.00 0.00 0.00 77 1021.4
20260901185325 20 348 14.5 32.2 0.00 0.00 0.00 76 1021.3
20260901184819 21 49 17.7 35.4 0.00 0.00 0.00 76 1021.4
20260901184322 21 348 20.9 35.4 0.00 0.00 0.00 76 1021.3
20260901183819 21 42 16.1 37.0 0.00 0.00 0.00 76 1021.4
20260901183316 21 360 22.5 37.0 0.00 0.00 0.00 75 1021.4
20260901182819 21 333 14.5 33.8 0.00 0.00 0.00 75 1021.4
20260901182314 21 340 19.3 33.8 0.00 0.00 0.00 75 1021.4
20260901181817 21 329 16.1 30.6 0.00 0.00 0.00 74 1021.4
20260901181337 21 339 14.5 30.6 0.00 0.00 0.00 74 1021.4
20260901180827 21 330 16.1 32.2 0.00 0.00 0.00 74 1021.2
20260901180324 21 42 17.7 32.2 0.00 0.00 0.00 74 1021.4
20260901175826 22 360 14.5 32.2 0.00 0.00 0.00 74 1021.5
20260901175318 22 360 14.5 37.0 0.00 0.00 0.00 74 1021.4
20260901174842 22 326 27.4 37.0 0.00 0.00 0.00 72 1021.4
20260901174316 22 325 14.5 40.2 0.00 0.00 0.00 72 1021.5
20260901173820 22 46 14.5 40.2 0.00 0.00 0.00 72 1021.4
20260901173316 22 40 14.5 30.6 0.00 0.00 0.00 71 1021.2
20260901172836 22 57 14.5 30.6 0.00 0.00 0.00 70 1021.2
20260901172333 22 86 12.9 30.6 0.00 0.00 0.00 70 1021.2
20260901171824 22 65 11.3 30.6 0.00 0.00 0.00 70 1021.1
20260901171327 22 42 11.3 40.2 0.00 0.00 0.00 70 1021.1
20260901170823 22 40 14.5 40.2 0.00 0.00 0.00 70 1021.1
20260901170326 22 360 20.9 33.8 0.00 0.00 0.00 70 1021.1
20260901165822 22 337 16.1 32.2 0.00 0.00 0.00 70 1021.1
20260901165315 22 84 19.3 32.2 0.00 0.00 0.00 70 1021.2
20260901164816 22 338 17.7 32.2 0.00 0.00 0.00 70 1021.2
20260901164339 22 360 14.5 32.2 0.00 0.00 0.00 69 1021.3
20260901163832 22 45 16.1 32.2 0.00 0.00 0.00 69 1021.2
20260901163335 23 360 14.5 29.0 0.00 0.00 0.00 68 1021.2
20260901162831 23 34 17.7 29.0 0.00 0.00 0.00 66 1021.1
20260901162354 23 360 16.1 29.0 0.00 0.00 0.00 65 1021.1
20260901161848 23 317 11.3 24.1 0.00 0.00 0.00 65 1021.1
20260901161351 23 42 16.1 24.1 0.00 0.00 0.00 63 1021.0
20260901160832 23 45 12.9 27.4 0.00 0.00 0.00 64 1021.1
20260901160328 23 324 16.1 33.8 0.00 0.00 0.00 64 1021.1
20260901155822 23 319 16.1 37.0 0.00 0.00 0.00 63 1021.0
20260901155325 23 360 16.1 32.2 0.00 0.00 0.00 65 1021.1
20260901154821 23 331 17.7 32.2 0.00 0.00 0.00 66 1021.0
20260901154324 23 69 12.9 29.0 0.00 0.00 0.00 66 1021.2
20260901153820 23 360 14.5 29.0 0.00 0.00 0.00 67 1021.1
20260901153343 24 318 9.7 30.6 0.00 0.00 0.00 67 1021.1
20260901152819 23 360 16.1 30.6 0.00 0.00 0.00 67 1021.0
20260901152314 23 360 17.7 29.0 0.00 0.00 0.00 67 1021.0
20260901151838 24 38 14.5 35.4 0.00 0.00 0.00 67 1021.0
20260901151322 24 56 19.3 35.4 0.00 0.00 0.00 66 1021.0
20260901150818 24 355 9.7 35.4 0.00 0.00 0.00 67 1020.9
20260901150336 24 339 17.7 35.4 0.00 0.00 0.00 66 1020.9
20260901145815 24 46 16.1 29.0 0.00 0.00 0.00 66 1020.9
20260901145327 24 311 16.1 29.0 0.00 0.00 0.00 65 1021.0
20260901144828 25 360 8.0 27.4 0.00 0.00 0.00 66 1021.0
20260901144353 24 78 9.7 27.4 0.00 0.00 0.00 66 1021.0
20260901143828 24 316 14.5 25.7 0.00 0.00 0.00 65 1021.0
20260901143325 24 70 14.5 29.0 0.00 0.00 0.00 65 1020.8
20260901142829 24 360 16.1 30.6 0.00 0.00 0.00 66 1021.0
20260901142324 24 355 14.5 30.6 0.00 0.00 0.00 65 1021.0
20260901141819 24 329 11.3 24.1 0.00 0.00 0.00 66 1021.0
20260901141320 24 346 14.5 29.0 0.00 0.00 0.00 66 1021.1
20260901140831 24 338 11.3 25.7 0.00 0.00 0.00 66 1021.1
20260901140334 24 40 16.1 27.4 0.00 0.00 0.00 66 1021.2
20260901135828 24 328 11.3 29.0 0.00 0.00 0.00 66 1021.2
20260901135331 24 91 14.5 30.6 0.00 0.00 0.00 66 1021.3
20260901134826 24 360 14.5 33.8 0.00 0.00 0.00 66 1021.2
20260901134329 24 51 17.7 32.2 0.00 0.00 0.00 65 1021.2
20260901133824 24 360 14.5 35.4 0.00 0.00 0.00 67 1021.3
20260901133328 23 355 17.7 35.4 0.00 0.00 0.00 66 1021.3
20260901132824 23 321 16.1 33.8 0.00 0.00 0.00 67 1021.4
20260901132319 23 360 19.3 32.2 0.00 0.00 0.00 66 1021.4
20260901131822 23 355 12.9 25.7 0.00 0.00 0.00 66 1021.4
20260901131316 23 69 14.5 29.0 0.00 0.00 0.00 67 1021.5
20260901130816 23 293 14.5 29.0 0.00 0.00 0.00 66 1021.6
20260901130332 23 319 14.5 29.0 0.00 0.00 0.00 67 1021.6
20260901125832 23 45 11.3 35.4 0.00 0.00 0.00 67 1021.6
20260901125329 23 342 14.5 35.4 0.00 0.00 0.00 67 1021.8
20260901124831 23 360 12.9 33.8 0.00 0.00 0.00 67 1021.7
20260901124324 23 360 17.7 33.8 0.00 0.00 0.00 67 1021.7
20260901123819 23 360 8.0 30.6 0.00 0.00 0.00 67 1021.7
20260901123316 23 333 16.1 32.2 0.00 0.00 0.00 67 1021.7
20260901122819 23 360 17.7 32.2 0.00 0.00 0.00 67 1021.7
20260901122345 23 342 16.1 32.2 0.00 0.00 0.00 67 1021.7
20260901121834 23 9 19.3 32.2 0.00 0.00 0.00 66 1021.7
20260901121337 23 360 17.7 38.6 0.00 0.00 0.00 67 1021.6
20260901120828 23 51 17.7 38.6 0.00 0.00 0.00 67 1021.7
20260901120350 23 70 14.5 35.4 0.00 0.00 0.00 67 1021.6
20260901115832 22 346 17.7 33.8 0.00 0.00 0.00 67 1021.6
20260901115329 23 44 17.7 38.6 0.00 0.00 0.00 67 1021.6
20260901114824 23 44 16.1 38.6 0.00 0.00 0.00 67 1021.7
20260901114322 22 360 17.7 37.0 0.00 0.00 0.00 68 1021.6
20260901113838 22 328 17.7 38.6 0.00 0.00 0.00 68 1021.7
20260901113315 22 360 20.9 38.6 0.00 0.00 0.00 69 1021.8
20260901112828 22 360 22.5 38.6 0.00 0.00 0.00 69 1021.6
20260901112347 22 54 14.5 35.4 0.00 0.00 0.00 69 1021.7
20260901111821 22 360 17.7 38.6 0.00 0.00 0.00 69 1021.8
20260901111325 22 360 22.5 38.6 0.00 0.00 0.00 69 1021.8
20260901110819 22 360 20.9 35.4 0.00 0.00 0.00 69 1021.8
20260901110321 22 42 17.7 29.0 0.00 0.00 0.00 69 1022.1
20260901105844 22 324 14.5 32.2 0.00 0.00 0.00 71 1022.1
20260901105315 22 329 17.7 35.4 0.00 0.00 0.00 72 1022.3
20260901104836 21 83 17.7 38.6 0.00 0.00 0.00 72 1022.1
20260901104322 21 360 17.7 38.6 0.00 0.00 0.00 72 1022.2
20260901103818 21 327 16.1 37.0 0.00 0.00 0.00 72 1022.2
20260901103320 21 334 25.7 37.0 0.00 0.00 0.00 72 1021.9
20260901102816 22 316 19.3 37.0 0.00 0.00 0.00 72 1022.0
20260901102319 21 339 22.5 35.4 0.00 0.00 0.00 72 1022.0
20260901101835 21 344 11.3 30.6 0.00 0.00 0.00 73 1022.1
20260901101338 21 360 14.5 33.8 0.00 0.00 0.00 73 1022.2
20260901100838 21 295 20.9 33.8 0.00 0.00 0.00 73 1022.1
20260901100352 21 360 16.1 29.0 0.00 0.00 0.00 74 1022.3
20260901095832 21 42 16.1 30.6 0.00 0.00 0.00 74 1022.3
20260901095328 21 336 14.5 32.2 0.00 0.00 0.00 74 1022.2
20260901094832 21 360 17.7 27.4 0.00 0.00 0.00 74 1022.2
20260901094330 21 324 12.9 25.7 0.00 0.00 0.00 74 1022.2
20260901093823 21 63 12.9 29.0 0.00 0.00 0.00 74 1022.2
20260901093326 21 317 9.7 27.4 0.00 0.00 0.00 75 1022.2
20260901092821 21 42 14.5 29.0 0.00 0.00 0.00 75 1022.2
20260901092325 21 350 11.3 29.0 0.00 0.00 0.00 75 1022.2
20260901091821 21 35 11.3 25.7 0.00 0.00 0.00 76 1022.2
20260901091317 21 360 9.7 30.6 0.00 0.00 0.00 76 1022.2
20260901090821 21 360 17.7 30.6 0.00 0.00 0.00 75 1022.0
20260901090318 21 63 14.5 38.6 0.00 0.00 0.00 76 1022.1
20260901085839 20 49 19.3 38.6 0.00 0.00 0.00 76 1021.9
20260901085340 20 360 16.1 33.8 0.00 0.00 0.00 77 1022.1
20260901084817 20 360 14.5 25.7 0.00 0.00 0.00 77 1022.1
20260901084331 20 360 12.9 29.0 0.00 0.00 0.00 77 1022.0
20260901083835 20 293 9.7 27.4 0.00 0.00 0.00 77 1022.1
20260901083331 20 360 12.9 27.4 0.00 0.00 0.00 78 1022.0
20260901082837 20 355 11.3 25.7 0.00 0.00 0.00 78 1022.1
20260901082353 20 30 14.5 29.0 0.00 0.00 0.00 78 1022.2
20260901081836 20 360 14.5 30.6 0.00 0.00 0.00 78 1022.0
20260901081331 20 51 19.3 30.6 0.00 0.00 0.00 78 1022.1
20260901080827 20 39 9.7 33.8 0.00 0.00 0.00 78 1022.2
20260901080331 20 71 14.5 33.8 0.00 0.00 0.00 77 1022.0
20260901075856 20 51 9.7 29.0 0.00 0.00 0.00 77 1022.0
20260901075329 20 338 11.3 29.0 0.00 0.00 0.00 77 1022.0
20260901074827 20 360 11.3 19.3 0.00 0.00 0.00 78 1021.9
20260901074350 20 360 8.0 25.7 0.00 0.00 0.00 78 1021.9
20260901073825 20 311 12.9 25.7 0.00 0.00 0.00 78 1022.0
20260901073349 20 333 6.4 20.9 0.00 0.00 0.00 78 1022.1
20260901072824 20 360 8.0 17.7 0.00 0.00 0.00 78 1021.8
20260901072328 20 59 1.6 14.5 0.00 0.00 0.00 79 1021.8
20260901071824 20 289 8.0 16.1 0.00 0.00 0.00 79 1021.8
20260901071326 19 360 8.0 22.5 0.00 0.00 0.00 79 1021.8